Hourly Data Report for June 03, 2015

All times are specified in Local Standard Time (LST). Add 1 hour to adjust for Daylight Saving Time where and when it is observed.

KELOWNA UBCO
BRITISH COLUMBIA

49°56'26.700" N
119°24'00.760" W
456.00 m
1123996
71644
VKU

Download Data

Hourly Data (June 2015)
Hourly Data Report for June 3, 2015
TIME Temp Definition
°C
Dew Point Definition
°C
Rel Hum Definition
%
Wind Dir Definition
10's deg

Wind Spd Definition
km/h
Visibility Definition
km
Stn Press Definition
kPa
Hmdx Definition


Wind Chill Definition


Weather Definition


00:00 14.3 8.1 66       96.07     LegendNANA
01:00 13.8 8.1 68       96.06     LegendNANA
02:00 12.6 9.2 80       96.07     LegendNANA
03:00 12.0 9.9 87       96.08     LegendNANA
04:00 11.8 10.0 89       96.09     LegendNANA
05:00 11.7 10.1 90       96.11     LegendNANA
06:00 12.2 9.7 84       96.13     LegendNANA
07:00 13.0 9.4 79       96.14     LegendNANA
08:00 14.0 8.4 69       96.15     LegendNANA
09:00 14.3 8.4 68       96.15     LegendNANA
10:00 14.8 8.7 67       96.14     LegendNANA
11:00 15.9 10.2 69       96.13     LegendNANA
12:00 15.7 9.4 66       96.12     LegendNANA
13:00 15.3 10.3 72       96.11     LegendNANA
14:00 14.7 10.4 75       96.11     LegendNANA
15:00 14.4 10.8 79       96.10     LegendNANA
16:00 14.4 11.0 80       96.10     LegendNANA
17:00 14.2 10.8 80       96.12     LegendNANA
18:00 14.0 11.4 84       96.12     LegendNANA
19:00 13.7 11.2 85       96.13     LegendNANA
20:00 13.1 10.7 85       96.17     LegendNANA
21:00 13.0 11.1 88       96.19     LegendNANA
22:00 12.6 11.2 91       96.18     LegendNANA
23:00 12.3 10.5 89       96.19     LegendNANA

Notes on Data Quality.

Legend

  • E = Estimated
  • M = Missing
  • NA = Not Available
Date modified: